User: anonymous   Login
Location: Unspecified
(0.0000°N, 0.0000°E)
Time: 12:06:16
(UTC+00:00)
Language:

VIASAT 1 - Orbit

View from above orbital plane
View from above orbital plane
View from above satellite
View from above satellite

Ground track
Ground track

The orbit data is extracted from the following two-line orbital elements,

1 37843U 11059A   19145.14182841 -.00000029  00000-0  00000+0 0  9991
2 37843   0.0178 325.6709 0002717  98.6448 114.0864  1.00271971 28407
Epoch (UTC): 25 May 2019 03:24:13
Eccentricity: 0.0002717
inclination: 0.0178°
perigee height: 35775 km
apogee height: 35797 km
right ascension of ascending node: 325.6709°
argument of perigee: 98.6448°
revolutions per day: 1.00271971
mean anomaly at epoch: 114.0864°
orbit number at epoch: 2840

The dashed part of the orbit path shows where the satellite is in the earth's shadow,  

DLR